Regional Weather Roundup
Issued by NWS

Home | Current Version | Previous Version | Graphics & Text | Print | Product List | Glossary On
Versions: 1 2 3 4 5 6 7 8 9 10 11 12 13 14 15 16 17 18 19 20 21 22 23 24 25 26 27 28 29 30 31 32 33 34 35 36 37 38 39 40 41 42 43 44 45 46 47 48 49 50
000
ASUS43 KMPX 282001
RWRMN
WEATHER ROUNDUP FOR MINNESOTA
NATIONAL WEATHER SERVICE TWIN CITIES/CHANHASSEN MN
300 PM CDT THU JUL 28 2016


NOTE: "FAIR" INDICATES FEW OR NO CLOUDS BELOW 12,000 FEET WITH NO
SIGNIFICANT WEATHER AND/OR OBSTRUCTIONS TO VISIBILITY. N/A MEANS
CURRENT SKY AND/OR WEATHER CONDITIONS ARE NOT AVAILABLE.

MNZ060>063-068>070-282100-
   Twin Cities Metro

CITY           SKY/WX    TMP DP  RH WIND       PRES   REMARKS
TWIN CITIES    CLOUDY    74  60  61 NE14G25   30.02S
ST PAUL        CLOUDY    72  60  66 N9        30.02S
CRYSTAL        PTSUNNY   75  57  53 NE12G21   30.01F
BLAINE         PTSUNNY   77  59  53 NE14G20   30.02F
LAKEVILLE      CLOUDY    70  63  78 NE10      30.01S
EDEN PRAIRIE   PTSUNNY   76  61  59 NE9       30.01F
LAKEVILLE      CLOUDY    70  63  78 NE10      30.01S
SOUTH ST PAUL  CLOUDY    73  60  65 NE10G16   30.01S
LAKE ELMO      PTSUNNY   72  61  68 NE8       30.03S
$$
MNZ001>005-007-008-013>017-022>024-027-028-282100-
   Northwest Minnesota

CITY           SKY/WX    TMP DP  RH WIND       PRES   REMARKS
HALLOCK        SUNNY     73  54  49 N9        30.12S
ROSEAU         SUNNY     72  59  64 NE6       30.12S
WARROAD        SUNNY     72  57  60 NE8       30.13F
THIEF RVR FALL PTSUNNY   73  58  59 NW6       30.12F
CROOKSTON      MOSUNNY   75  61  60 N8        30.11S
FOSSTON        MOSUNNY   75  59  57 NW7       30.11S
DETROIT LAKES  SUNNY     75  59  57 W6        30.10S
MOORHEAD       MOSUNNY   75  63  64 N6        30.09S
PARK RAPIDS    MOSUNNY   77  52  41 NE3       30.08F
MAHNOMEN       FAIR      77  56  49 N6        30.09S
$$
MNZ006-009>011-018-025>026-282100-
   North Central Minnesota

CITY           SKY/WX    TMP DP  RH WIND       PRES   REMARKS
BAUDETTE       PTSUNNY   74  57  55 N8        30.11F
FLAG ISLAND    SUNNY     70  52  52 NW3       30.12F
INTL FALLS     SUNNY     75  53  46 VRB3      30.09F
WASKISH        SUNNY     75  57  53 W5        30.09F
BIG FORK       MOSUNNY   79  52  38 W3        30.09F
LONGVILLE      SUNNY     75  57  53 NE3       30.08F
GRAND RAPIDS   CLOUDY    74  56  53 N5        30.10F
CRANE LAKE     MOSUNNY   73  54  49 NE1       30.10F
ORR            CLOUDY    73  52  46 CALM      30.07F
COOK           MOSUNNY   75  54  46 E3        30.09F
WALKER         FAIR      74  58  58 E7        30.08F
$$
MNZ012-019>021-037-282100-
   Northeast Minnesota

CITY           SKY/WX    TMP DP  RH WIND       PRES   REMARKS
DULUTH         CLOUDY    72  51  47 E14       30.10S
ELY            SUNNY     73  48  40 CALM      30.09F
HIBBING        SUNNY     75  53  46 VRB5      30.08F
EVELETH        MOSUNNY   75  51  42 CALM      30.09F
DULUTH HARBOR  MOSUNNY   66  61  82 NE21      30.09F
TWO HARBORS    CLOUDY    75  57  53 E10       30.08S
SILVER BAY     CLOUDY    70  54  56 E8        30.10S
GRAND MARAIS     N/A     66  56  70 E6        30.11F
$$
MNZ029>031-032-039>041-046>048-054>057-064-282100-
   West Central Minnesota

CITY           SKY/WX    TMP DP  RH WIND       PRES   REMARKS
FERGUS FALLS   CLOUDY    75  57  53 CALM      30.09R
WHEATON        MOSUNNY   79  63  57 CALM      30.09F
MORRIS         CLOUDY    79  57  47 NE6       30.07F
ALEXANDRIA     CLOUDY    75  58  55 E10       30.10S
ELBOW LAKE     FAIR      75  58  54 SE3       30.09S
WADENA         CLOUDY    75  61  60 NE8       30.07F
GLENWOOD       PTSUNNY   75  57  53 NE9       30.09F
APPLETON       PTSUNNY   75  57  53 NE9       30.06F
BENSON         CLOUDY    77  55  47 E8        30.07S
ORTONVILLE     PTSUNNY   77  57  50 NE6       30.07F
MADISON        CLOUDY    75  57  53 NE8       30.07F
WILLMAR        FAIR      75  57  53 NE8       30.07F
$$
MNZ033>034-036-042>043-049>051-058-059-282100-
   Central Minnesota

CITY           SKY/WX    TMP DP  RH WIND       PRES   REMARKS
ST CLOUD       PTSUNNY   73  56  54 N10       30.06S
SAUK CENTRE    FAIR      73  55  53 NE9       30.08F
PAYNESVILLE    CLOUDY    72  55  55 NE9       30.07S
AITKIN         CLOUDY    75  52  43 E5        30.07S
PINE RIVER     PTSUNNY   73  59  60 N7        30.10F
BRAINERD       CLOUDY    74  56  53 N7        30.08F
STAPLES        PTSUNNY   73  55  53 E5        30.08F
LONG PRAIRIE   FAIR      73  55  53 N5        30.08F
LITTLE FALLS   CLOUDY    73  52  46 NE7       30.08F
LITCHFIELD     PTSUNNY   75  63  64 N8        30.06S
BUFFALO        MOSUNNY   76  57  52 N8        30.05R
MAPLE LAKE     MOSUNNY   75  62  64 N9        30.06R
HUTCHINSON     PTSUNNY   74  63  68 NE8       30.05S
$$
MNZ037-044-045-052-053-282100-
   East Central Minnesota

CITY           SKY/WX    TMP DP  RH WIND       PRES   REMARKS
PRINCETON      PTSUNNY   77  59  53 N10       30.05F
MORA           PTSUNNY   70  55  60 N7        30.07F
CAMBRIDGE      CLOUDY    75  59  57 NE7       30.03F
RUSH CITY      CLOUDY    75  59  57 NE9       30.05F
MOOSE LAKE     CLOUDY    70  52  52 NE7       30.06F
HINCKLEY       FAIR      73  55  53 N13       30.06S
CLOQUET        MOSUNNY   70  52  52 E13       30.09F
MCGREGOR       PTSUNNY   73  55  53 E9        30.08F
$$
MNZ071>073-080-081-089-090-097-098-282100-
   Southwest Minnesota

CITY           SKY/WX    TMP DP  RH WIND       PRES   REMARKS
MONTEVIDEO     MOSUNNY   75  57  53 E13       30.08S
GRANITE FALLS  CLOUDY    77  61  58 N10       30.06F
CANBY          CLOUDY    76  60  56 NE12      30.07F
MARSHALL       CLOUDY    73  63  70 N10       30.06F
REDWOOD FALLS  PTSUNNY   75  57  53 N8        30.04S
OLIVIA         CLOUDY    73  59  60 N7        30.04F
WINDOM         MOSUNNY   73  63  68 N8        30.04F
WORTHINGTON    PTSUNNY   73  62  68 N12       30.05F
JACKSON        CLOUDY    72  61  68 N9        30.04F
TRACY          MOSUNNY   74  64  71 N10       30.05F
SLAYTON        MOSUNNY   74  62  66 N12       30.06F
$$
MNZ065>067-074>077-082>085-091>093-282100-
   South Central Minnesota

CITY           SKY/WX    TMP DP  RH WIND       PRES   REMARKS
MANKATO        CLOUDY    72  61  68 N10       30.03S
NEW ULM        CLOUDY    73  63  68 N9        30.03F
ST JAMES       CLOUDY    70  57  64 N8        30.03F
FAIRMONT       CLOUDY    73  63  68 N8        30.01F
GLENCOE        CLOUDY    74  66  76 N6        30.03S
FARIBAULT      CLOUDY    72  64  78 N5        30.02S
OWATONNA       PTSUNNY   72  64  78 NW12      30.01R
WASECA         CLOUDY    70  63  78 N9        30.04R
ALBERT LEA     CLOUDY    72  64  78 N12       30.01R
$$
MNZ078>079-086>088-094>096-282100-
   Southeast Minnesota

CITY           SKY/WX    TMP DP  RH WIND       PRES   REMARKS
ROCHESTER      LGT RAIN  68  65  90 NE18G24   30.00R
RED WING       CLOUDY    72  63  73 NE7       29.99S
STANTON        CLOUDY    72  63  73 NE10      29.99S
DODGE CENTER   DRIZZLE  N/A N/A N/A NE10      30.00R
WINONA         CLOUDY    70  61  73 NE6       29.98F
AUSTIN         RAIN      70  64  83 N7        29.99R
PRESTON        CLOUDY    68  62  82 N14       29.98F
$$
ABBREVIATIONS USED IN REMARKS
   TC - TEMPERATURES IN CELSIUS
  WCI - WIND CHILL INDEX
   HX - HEAT INDEX
  VSB - VISIBILITY
$$




USA.gov is the U.S. government's official web portal to all federal, state and local government web resources and services.